GW1201 Weather Reports


time (UTC)temp
F
wind
direction
speed
knots
gust
knots
rain 1hr
in
rain 24hr
in
rain mn
in
humidity
%
barometer
mb
20260510044823 73 265 0.0 1.7 0.00 0.03 0.03 88 1012.2
20260510044320 73 195 0.0 0.0 0.00 0.03 0.03 88 1012.1
20260510043816 73 195 0.0 0.0 0.00 0.03 0.03 88 1012.1
20260510043312 74 195 0.0 0.9 0.00 0.03 0.03 87 1012.1
20260510042810 74 261 0.0 0.9 0.00 0.03 0.03 86 1012.3
20260510042307 74 270 0.0 0.9 0.00 0.03 0.03 86 1012.3
20260510041802 74 185 0.0 2.6 0.00 0.03 0.03 86 1012.1
20260510041300 75 254 0.0 0.9 0.00 0.03 0.03 85 1012.5
20260510040757 75 180 0.0 1.7 0.00 0.03 0.03 85 1012.1
20260510040254 75 165 0.0 0.9 0.00 0.03 0.03 86 1012.2
20260510035749 75 276 0.9 2.6 0.00 0.03 0.03 85 1012.1
20260510035245 75 261 0.0 1.7 0.00 0.03 0.03 85 1012.0
20260510034741 75 180 0.0 0.9 0.00 0.03 0.03 85 1012.0
20260510034239 75 187 0.0 1.7 0.00 0.03 0.03 85 1011.9
20260510033734 75 270 0.0 0.9 0.00 0.03 0.03 85 1012.0
20260510033227 76 180 0.0 1.7 0.00 0.03 0.03 84 1011.8
20260510032723 76 168 0.0 1.7 0.00 0.03 0.03 85 1011.8
20260510032219 76 172 0.0 0.0 0.00 0.03 0.03 85 1011.8
20260510031714 76 188 0.0 2.6 0.00 0.03 0.03 84 1011.8
20260510031211 76 198 0.9 1.7 0.00 0.03 0.03 85 1011.6
20260510030710 76 126 0.0 0.9 0.00 0.03 0.03 84 1011.8
20260510030208 77 254 0.0 2.6 0.00 0.03 0.03 84 1011.8
20260510025705 77 203 0.0 1.7 0.00 0.03 0.03 84 1011.5
20260510025202 77 180 0.0 1.7 0.00 0.03 0.03 83 1011.4
20260510024659 78 176 0.0 2.6 0.00 0.03 0.03 82 1011.6
20260510024155 78 198 0.9 3.5 0.00 0.03 0.03 82 1011.0
20260510023651 78 180 1.7 2.6 0.00 0.03 0.03 82 1011.3
20260510023148 78 176 0.0 3.5 0.00 0.03 0.03 82 1011.3
20260510022643 78 180 0.0 1.7 0.00 0.03 0.03 81 1010.9
20260510022139 78 69 0.0 1.7 0.00 0.03 0.03 80 1010.7
20260510021634 78 75 0.0 2.6 0.00 0.03 0.03 80 1010.9
20260510021132 78 196 1.7 1.7 0.00 0.03 0.03 79 1011.0
20260510020626 77 180 0.0 1.7 0.00 0.03 0.03 79 1011.0
20260510020121 77 279 0.0 0.0 0.00 0.03 0.03 78 1010.8
20260510015618 77 254 0.0 0.0 0.00 0.03 0.03 75 1010.8
20260510015114 78 254 0.0 0.9 0.00 0.03 0.03 74 1010.6
20260510014610 78 175 0.0 1.7 0.00 0.03 0.03 73 1010.7
20260510014108 78 169 0.0 1.7 0.00 0.03 0.03 72 1010.6
20260510013607 78 195 0.0 0.0 0.00 0.03 0.03 70 1010.5
20260510013103 79 172 0.0 0.0 0.00 0.03 0.03 69 1010.7
20260510012557 79 131 0.0 1.7 0.00 0.03 0.03 67 1010.6
20260510012054 80 180 0.9 1.7 0.00 0.03 0.03 66 1010.3
20260510011553 80 261 0.0 1.7 0.00 0.03 0.03 65 1010.3
20260510011050 80 120 0.0 0.0 0.00 0.03 0.03 64 1010.5
20260510010547 81 83 0.0 1.7 0.00 0.03 0.03 63 1010.3
20260510010044 81 270 0.0 0.0 0.00 0.03 0.03 62 1010.3
20260510005539 82 101 0.0 2.6 0.00 0.03 0.03 62 1010.3
20260510005037 82 257 0.0 2.6 0.00 0.03 0.03 62 1010.3
20260510004534 82 270 0.0 2.6 0.00 0.03 0.03 61 1010.3
20260510004032 82 194 2.6 3.5 0.00 0.03 0.03 59 1010.2
20260510003529 83 209 2.6 2.6 0.00 0.03 0.03 59 1009.9
20260510003024 83 213 3.5 4.3 0.00 0.03 0.03 57 1010.2
20260510002520 83 93 3.5 5.2 0.00 0.03 0.03 56 1010.2
20260510002017 84 154 0.0 3.5 0.00 0.03 0.03 56 1010.0
20260510001514 84 180 0.9 4.3 0.00 0.03 0.03 55 1009.8
20260510001012 84 123 1.7 3.5 0.00 0.03 0.03 52 1009.8
20260510000507 84 206 1.7 3.5 0.00 0.03 0.03 54 1009.8
20260510000004 85 105 0.0 4.3 0.00 0.03 0.03 53 1009.9
20260509235501 85 163 0.0 4.3 0.00 0.03 0.03 49 1009.9
20260509234957 85 132 1.7 4.3 0.00 0.03 0.03 47 1009.8
20260509234454 86 180 1.7 3.5 0.00 0.03 0.03 50 1009.7
20260509233952 87 237 2.6 4.3 0.00 0.03 0.03 49 1009.7
20260509233449 87 325 0.9 5.2 0.00 0.03 0.03 49 1009.6
20260509232945 87 64 2.6 4.3 0.00 0.03 0.03 52 1009.4
20260509232443 87 83 3.5 6.1 0.00 0.03 0.03 53 1009.6
20260509231938 87 331 0.0 6.1 0.00 0.03 0.03 53 1009.5
20260509231435 88 82 2.6 6.1 0.00 0.03 0.03 55 1009.6
20260509230934 89 109 3.5 4.3 0.00 0.03 0.03 52 1009.5
20260509230430 90 279 0.0 2.6 0.00 0.03 0.03 54 1009.5
20260509225926 89 180 0.9 5.2 0.00 0.03 0.03 57 1009.3
20260509225422 90 158 2.6 3.5 0.00 0.03 0.03 54 1009.5
20260509224919 90 60 0.9 3.5 0.00 0.03 0.03 56 1009.3
20260509224414 89 140 1.7 4.3 0.00 0.03 0.03 55 1009.5
20260509223912 90 231 2.6 4.3 0.00 0.03 0.03 55 1009.4
20260509223408 89 90 0.9 3.5 0.00 0.03 0.03 56 1009.5
20260509222905 90 353 0.0 3.5 0.00 0.03 0.03 55 1009.3
20260509222401 89 117 0.0 2.6 0.00 0.03 0.03 56 1009.4
20260509221856 90 90 0.0 2.6 0.00 0.03 0.03 55 1009.4
20260509221354 90 180 0.0 2.6 0.00 0.03 0.03 57 1009.1
20260509220849 89 225 4.3 4.3 0.00 0.03 0.03 56 1009.4
20260509220345 90 78 1.7 2.6 0.00 0.03 0.03 54 1009.4
20260509215841 88 90 0.9 3.5 0.00 0.03 0.03 58 1009.4
20260509215337 88 117 1.7 5.2 0.00 0.03 0.03 57 1009.4
20260509214835 88 0 0.0 4.3 0.00 0.03 0.03 56 1009.3
20260509214332 87 111 2.6 3.5 0.00 0.03 0.03 58 1009.6
20260509213829 85 157 3.5 3.5 0.00 0.03 0.03 58 1009.5
20260509213324 85 283 1.7 4.3 0.00 0.03 0.03 61 1009.7
20260509212822 83 175 4.3 6.1 0.00 0.03 0.03 60 1010.1
20260509212320 83 198 6.1 7.8 0.00 0.03 0.03 60 1009.8
20260509211815 82 204 1.7 5.2 0.00 0.03 0.03 60 1010.0
20260509211311 82 126 3.5 6.1 0.00 0.03 0.03 59 1010.3
20260509210808 82 50 3.5 7.0 0.00 0.03 0.03 59 1010.4
20260509210306 79 134 6.1 12.2 0.00 0.03 0.03 61 1010.4
20260509205805 82 106 6.1 12.2 0.00 0.03 0.03 56 1010.3
20260509205300 84 92 4.3 11.3 0.00 0.03 0.03 59 1010.3
20260509204756 87 2 3.5 7.0 0.00 0.03 0.03 56 1010.4
20260509204252 91 334 0.0 3.5 0.00 0.03 0.03 51 1010.4
20260509203749 92 0 3.5 3.5 0.00 0.03 0.03 50 1010.1
20260509203247 91 270 0.9 2.6 0.00 0.03 0.03 49 1010.1
20260509202742 92 270 1.7 4.3 0.00 0.03 0.03 49 1010.2
20260509202238 92 255 0.0 7.0 0.00 0.03 0.03 51 1010.2
20260509201733 92 64 2.6 5.2 0.00 0.03 0.03 50 1010.3
20260509201230 92 54 0.9 2.6 0.00 0.03 0.03 53 1010.3
20260509200726 91 346 0.9 2.6 0.00 0.03 0.03 52 1010.4
20260509200221 92 225 3.5 3.5 0.00 0.03 0.03 52 1010.4
20260509195717 90 285 0.0 2.6 0.00 0.03 0.03 55 1010.5
20260509195213 88 210 1.7 6.1 0.00 0.03 0.03 57 1010.4
20260509194707 90 206 2.6 7.8 0.00 0.03 0.03 56 1010.8
20260509194204 90 328 0.0 2.6 0.00 0.03 0.03 56 1010.4
20260509193700 90 172 0.9 7.8 0.00 0.03 0.03 56 1010.6
20260509193155 91 243 0.0 3.5 0.00 0.03 0.03 55 1010.7
20260509192652 91 270 0.9 6.1 0.00 0.03 0.03 58 1010.7
20260509192147 89 5 1.7 2.6 0.00 0.03 0.03 55 1011.0
20260509191647 90 204 1.7 6.1 0.00 0.03 0.03 58 1011.0
20260509191144 89 5 0.0 3.5 0.00 0.03 0.03 61 1011.0
20260509190641 87 232 2.6 3.5 0.00 0.03 0.03 62 1011.0
20260509190138 88 200 0.0 2.6 0.00 0.03 0.03 59 1011.2
20260509185636 89 251 3.5 5.2 0.00 0.03 0.03 58 1011.3
20260509185131 89 219 3.5 3.5 0.00 0.03 0.03 59 1011.2
20260509184624 89 267 6.1 6.1 0.00 0.03 0.03 61 1011.6
20260509184120 88 261 0.0 6.1 0.00 0.03 0.03 62 1011.5
20260509183616 88 243 0.0 2.6 0.00 0.03 0.03 60 1011.5
20260509183112 87 292 1.7 3.5 0.00 0.03 0.03 63 1011.7
20260509182608 87 255 0.9 5.2 0.00 0.03 0.03 65 1011.9
20260509182105 88 280 2.6 2.6 0.00 0.03 0.03 63 1011.9
20260509181604 86 220 0.0 2.6 0.00 0.03 0.03 66 1012.0
20260509181101 86 7 1.7 4.3 0.00 0.03 0.03 64 1011.9
20260509180556 87 262 0.9 2.6 0.00 0.03 0.03 64 1011.8
20260509180054 87 188 0.0 5.2 0.00 0.03 0.03 69 1011.8
20260509175549 86 41 1.7 2.6 0.00 0.03 0.03 65 1012.2
20260509175046 87 212 0.0 4.3 0.00 0.03 0.03 66 1012.1
20260509174542 87 320 1.7 4.3 0.00 0.03 0.03 72 1012.2
20260509174038 87 98 0.0 1.7 0.00 0.03 0.03 68 1012.4
20260509173532 85 264 0.0 4.3 0.00 0.03 0.03 71 1012.5
20260509173029 85 235 5.2 7.0 0.00 0.03 0.03 69 1012.5
20260509172526 86 165 0.9 4.3 0.00 0.03 0.03 72 1012.5
20260509172021 84 173 1.7 5.2 0.00 0.03 0.03 74 1012.5
20260509171517 85 270 2.6 7.0 0.00 0.03 0.03 70 1012.5
20260509171014 85 227 2.6 3.5 0.00 0.03 0.03 70 1012.5
20260509170510 84 223 3.5 7.0 0.00 0.03 0.03 72 1012.3
20260509170006 85 219 0.0 4.3 0.00 0.03 0.03 72 1012.7
20260509165504 85 233 2.6 4.3 0.00 0.03 0.03 74 1012.5
20260509165000 84 280 2.6 4.3 0.00 0.03 0.03 77 1012.6
20260509164457 84 191 2.6 3.5 0.00 0.03 0.03 77 1012.7
20260509163952 82 228 3.5 7.0 0.00 0.03 0.03 76 1012.6
20260509163451 83 0 1.7 2.6 0.00 0.03 0.03 78 1012.5
20260509162949 82 259 2.6 3.5 0.00 0.03 0.03 78 1012.7
20260509162448 81 212 2.6 5.2 0.00 0.03 0.03 80 1012.4
20260509161944 81 209 6.1 8.7 0.00 0.03 0.03 80 1012.5
20260509161440 81 168 5.2 5.2 0.00 0.03 0.03 81 1012.7
20260509160935 80 189 4.3 6.1 0.00 0.03 0.03 81 1012.3
20260509160432 80 239 1.7 7.8 0.00 0.03 0.03 81 1012.7
20260509155927 80 263 2.6 5.2 0.00 0.03 0.03 87 1012.5
20260509155424 78 12 0.9 7.0 0.00 0.03 0.03 85 1012.4
20260509154920 78 180 3.5 4.3 0.00 0.03 0.03 87 1012.5
20260509154417 78 255 4.3 6.1 0.00 0.03 0.03 89 1012.9
20260509153914 77 216 2.6 6.1 0.00 0.03 0.03 90 1012.7
20260509153411 77 201 6.1 6.1 0.02 0.03 0.03 91 1012.8
20260509152908 76 223 7.0 7.8 0.02 0.03 0.03 93 1012.7
20260509152404 75 185 4.3 4.3 0.00 0.02 0.02 94 1013.2
20260509151901 75 163 2.6 5.2 0.00 0.02 0.02 94 1012.9
20260509151356 74 195 2.6 5.2 0.00 0.02 0.02 94 1012.7
20260509150855 74 227 2.6 2.6 0.00 0.02 0.02 95 1012.9
20260509150353 74 105 1.7 3.5 0.00 0.02 0.02 94 1012.9
20260509145850 73 98 0.0 4.3 0.00 0.02 0.02 94 1012.8
20260509145344 73 183 2.6 2.6 0.00 0.02 0.02 95 1012.7
20260509144841 73 180 1.7 2.6 0.00 0.02 0.02 94 1012.3
20260509144338 73 158 2.6 3.5 0.00 0.02 0.02 95 1012.5
20260509143835 73 123 1.7 2.6 0.00 0.02 0.02 94 1012.4
20260509143332 72 125 2.6 3.5 0.00 0.02 0.02 95 1012.5
20260509142828 73 215 0.0 1.7 0.00 0.02 0.02 95 1012.3
20260509142324 73 186 0.9 2.6 0.00 0.02 0.02 94 1012.0
20260509141820 73 111 0.0 2.6 0.00 0.02 0.02 94 1012.0
20260509141317 72 203 0.0 4.3 0.00 0.02 0.02 94 1011.8
20260509140814 73 172 0.0 3.5 0.00 0.02 0.02 94 1011.8
20260509140311 72 110 0.0 1.7 0.00 0.02 0.02 94 1011.8
20260509135809 72 177 0.0 2.6 0.00 0.02 0.02 94 1012.0
20260509135306 72 106 0.9 1.7 0.00 0.02 0.02 94 1012.0
20260509134803 72 81 0.0 1.7 0.00 0.02 0.02 94 1012.1
20260509134301 72 83 0.9 0.9 0.00 0.02 0.02 94 1012.1
20260509133757 72 65 1.7 1.7 0.00 0.02 0.02 94 1012.6
20260509133254 72 14 0.9 2.6 0.00 0.02 0.02 94 1012.6
20260509132753 72 57 1.7 1.7 0.00 0.02 0.02 94 1012.7
20260509132251 72 12 0.9 2.6 0.00 0.02 0.02 94 1012.7
20260509131747 71 23 1.7 2.6 0.00 0.02 0.02 94 1012.5
20260509131244 72 55 2.6 3.5 0.00 0.02 0.02 94 1012.4
20260509130740 72 0 0.9 3.5 0.00 0.02 0.02 94 1012.2
20260509130236 72 69 2.6 2.6 0.00 0.02 0.02 94 1012.2
20260509125733 72 29 0.0 1.7 0.00 0.02 0.02 94 1011.9
20260509125230 71 29 0.9 2.6 0.00 0.02 0.02 94 1012.0
20260509124726 71 58 2.6 2.6 0.00 0.02 0.02 94 1012.1
20260509124223 71 15 1.7 2.6 0.00 0.02 0.02 94 1012.0
20260509123721 72 15 1.7 1.7 0.00 0.02 0.02 94 1011.9
20260509123218 71 40 1.7 1.7 0.00 0.02 0.02 94 1012.0
20260509122713 71 29 0.0 0.9 0.00 0.02 0.02 94 1012.0
20260509122210 71 40 0.0 1.7 0.00 0.02 0.02 94 1012.2
20260509121707 71 66 0.0 0.0 0.00 0.02 0.02 94 1012.2
20260509121205 71 69 0.9 0.9 0.00 0.02 0.02 94 1012.2
20260509120703 71 69 0.0 0.9 0.00 0.02 0.02 94 1012.1
20260509120201 71 35 0.0 1.7 0.00 0.02 0.02 94 1012.2
20260509115658 71 20 0.9 1.7 0.00 0.02 0.02 94 1011.9
20260509115155 71 68 0.0 1.7 0.00 0.02 0.02 94 1012.5
20260509114653 71 0 0.0 0.9 0.00 0.02 0.02 94 1012.0
20260509114152 71 23 0.0 2.6 0.00 0.02 0.02 94 1012.5
20260509113650 71 66 0.0 1.7 0.00 0.02 0.02 94 1012.4
20260509113147 71 75 0.9 2.6 0.00 0.02 0.02 94 1012.6
20260509112643 71 23 1.7 1.7 0.00 0.02 0.02 94 1012.6
20260509112141 71 60 0.9 1.7 0.00 0.02 0.02 94 1012.8
20260509111638 71 38 0.0 2.6 0.00 0.02 0.02 94 1012.8
20260509111134 71 30 0.0 1.7 0.02 0.02 0.02 94 1012.9
20260509110632 71 0 1.7 3.5 0.02 0.02 0.02 94 1013.1
20260509110129 71 25 2.6 3.5 0.00 0.02 0.02 94 1013.0
20260509105627 71 21 2.6 2.6 0.00 0.02 0.02 94 1012.8
20260509105124 71 29 0.0 1.7 0.00 0.02 0.02 94 1013.0
20260509104621 71 32 1.7 3.5 0.00 0.02 0.02 95 1012.9
20260509104117 72 26 0.0 2.6 0.00 0.02 0.02 94 1013.2
20260509103615 71 15 0.0 1.7 0.00 0.02 0.02 94 1012.9
20260509103113 71 69 0.0 1.7 0.00 0.02 0.02 94 1012.8
20260509102610 71 31 0.0 2.6 0.00 0.02 0.02 94 1012.8
20260509102107 72 60 0.0 1.7 0.00 0.02 0.02 94 1012.6
20260509101603 72 29 0.0 0.9 0.00 0.02 0.02 94 1012.4
20260509101100 71 90 0.0 0.0 0.00 0.02 0.02 95 1012.4
20260509100557 72 90 0.0 0.9 0.00 0.02 0.02 94 1012.2
20260509100055 71 90 0.9 0.9 0.00 0.02 0.02 94 1012.0
20260509095551 71 81 0.0 1.7 0.00 0.02 0.02 94 1011.9
20260509095049 71 90 0.0 0.0 0.00 0.02 0.02 94 1011.9
20260509094545 71 45 0.0 1.7 0.00 0.02 0.02 94 1011.5
20260509094042 71 106 0.0 0.9 0.00 0.02 0.02 94 1011.7
20260509093541 72 75 0.9 1.7 0.02 0.02 0.02 94 1011.8
20260509093038 72 8 0.0 0.0 0.02 0.02 0.02 94 1011.8
20260509092535 71 345 0.0 0.9 0.00 0.02 0.02 94 1011.6
20260509092034 71 345 0.0 0.9 0.00 0.02 0.02 94 1011.5
20260509091531 72 0 0.0 1.7 0.02 0.02 0.02 95 1011.6
20260509091027 71 279 0.0 0.0 0.00 0.01 0.01 95 1011.7
20260509090525 72 279 0.0 0.0 0.00 0.01 0.01 94 1011.4
20260509090023 72 66 0.0 0.0 0.02 0.01 0.01 95 1011.7
20260509085519 71 66 0.0 1.7 0.02 0.01 0.01 94 1011.3
20260509085015 72 0 0.0 0.0 0.02 0.01 0.01 94 1011.7
20260509084513 72 0 0.0 0.9 0.02 0.00 0.00 94 1011.6
20260509084010 71 270 0.0 1.7 0.02 0.00 0.00 95 1011.6
20260509083507 72 0 0.0 1.7 0.00 0.00 0.00 95 1011.7
20260509083003 72 60 0.0 0.0 0.00 0.00 0.00 94 1011.8
20260509082501 72 106 0.9 1.7 0.00 0.00 0.00 94 1011.9
20260509081958 72 0 0.0 2.6 0.00 0.00 0.00 95 1012.0
20260509081455 72 341 1.7 2.6 0.00 0.00 0.00 95 1011.9
20260509080952 72 6 0.9 1.7 0.00 0.00 0.00 95 1012.1
20260509080450 72 74 0.0 1.7 0.00 0.00 0.00 95 1011.9
20260509075948 72 99 0.0 0.0 0.00 0.00 0.00 95 1011.9
20260509075445 72 99 0.0 0.0 0.00 0.00 0.00 95 1011.5
20260509074943 72 0 0.0 1.7 0.00 0.00 0.00 95 1011.8
20260509074440 72 276 0.9 0.9 0.00 0.00 0.00 95 1011.8
20260509073936 72 286 0.0 0.9 0.00 0.00 0.00 95 1011.7
20260509073433 72 75 0.0 0.9 0.00 0.00 0.00 95 1011.7
20260509072929 72 172 0.0 1.7 0.00 0.00 0.00 95 1011.6
20260509072426 72 154 0.0 1.7 0.00 0.00 0.00 95 1011.6
20260509071922 72 157 0.0 1.7 0.00 0.00 0.00 95 1011.6
20260509071419 72 99 0.0 1.7 0.00 0.00 0.00 95 1011.7
20260509070917 72 111 0.0 1.7 0.00 0.00 0.00 95 1011.7
20260509070414 72 264 0.9 2.6 0.00 0.00 0.00 95 1011.9
20260509065909 72 200 0.0 3.5 0.00 0.00 0.00 95 1012.2
20260509065406 72 204 1.7 3.5 0.00 0.00 0.00 95 1012.1
20260509064902 72 188 0.0 2.6 0.00 0.00 0.00 94 1012.1
20260509064359 72 270 0.0 3.5 0.00 0.00 0.00 95 1011.8
20260509063857 72 180 0.9 3.5 0.00 0.00 0.00 95 1011.6
20260509063353 72 132 1.7 3.5 0.00 0.00 0.00 95 1011.7
20260509062850 72 233 1.7 4.3 0.00 0.00 0.00 95 1011.4
20260509062347 72 287 1.7 4.3 0.00 0.00 0.00 95 1011.5
20260509061844 72 238 3.5 3.5 0.00 0.00 0.00 94 1011.4
20260509061343 72 231 4.3 6.1 0.00 0.00 0.00 95 1011.9
20260509060839 72 217 3.5 7.8 0.00 0.00 0.00 94 1011.8
20260509060336 72 207 2.6 6.1 0.00 0.00 0.00 94 1011.5
20260509055831 72 196 5.2 6.1 0.00 0.00 0.00 94 1011.8
20260509055327 73 232 4.3 7.8 0.00 0.00 0.00 94 1011.5
20260509054825 73 182 3.5 4.3 0.00 0.00 0.00 94 1011.2
20260509054321 72 217 3.5 5.2 0.00 0.00 0.00 94 1011.3
20260509053820 72 162 0.0 5.2 0.00 0.00 0.00 94 1011.4
20260509053316 72 170 1.7 4.3 0.00 0.00 0.00 94 1011.6
20260509052815 72 205 2.6 5.2 0.00 0.00 0.00 94 1011.7
20260509052312 72 232 4.3 4.3 0.00 0.00 0.00 94 1011.5
20260509051810 72 218 1.7 6.1 0.00 0.00 0.00 94 1011.4
20260509051307 72 184 1.7 4.3 0.00 0.00 0.00 94 1011.4
20260509050804 71 214 2.6 3.5 0.00 0.00 0.00 94 1011.3
20260509050300 71 212 0.0 2.6 0.00 0.00 0.00 94 1011.2
20260509045758 71 214 1.7 3.5 0.00 0.00 0.00 94 1011.0
20260509045254 71 60 0.0 0.9 0.00 0.00 0.00 94 1011.0